Regional Weather Roundup
Issued by NWS

Home | Current Version | Previous Version | Graphics & Text | Print | Product List | Glossary On
Versions: 1 2 3 4 5 6 7 8 9 10 11 12 13 14 15 16 17 18 19 20 21 22 23 24 25 26 27 28 29 30 31 32 33 34 35 36 37 38 39 40 41 42 43 44 45 46 47 48 49 50
000
ASUS43 KFSD 132010
RWRSD

WEATHER ROUNDUP FOR SOUTH DAKOTA
NATIONAL WEATHER SERVICE SIOUX FALLS SD
200 PM CST SAT FEB 13 2016

NOTE: "FAIR" INDICATES FEW OR NO CLOUDS BELOW 12,000 FEET WITH NO
SIGNIFICANT WEATHER AND/OR OBSTRUCTIONS TO VISIBILITY.


SDZ001>005-009-010-012>017-132100-
NORTHWEST AND NORTH CENTRAL SOUTH DAKOTA

CITY           SKY/WX    TMP DP  RH WIND       PRES   REMARKS
BUFFALO          N/A     29  26  89 S16       29.73F WCI  17
FAITH            N/A     26  22  84 SE20      29.87F WCI  12
MOBRIDGE       CLOUDY    18  13  80 SE17      30.03F WCI   3
$$

SDZ012>016-024>037-041>051-057-063-072>074-132100-
SOUTHWEST AND SOUTH CENTRAL SOUTH DAKOTA

CITY           SKY/WX    TMP DP  RH WIND       PRES   REMARKS
RAPID CTY ARPT CLOUDY    49  32  52 S15       29.80F
PIERRE         CLOUDY    27  18  69 SE23G33   30.01F WCI  12
CUSTER         CLOUDY    51  26  37 S9        29.81F
ELLSWORTH AFB  CLOUDY    47  33  57 SE15      29.80F
PHILIP         CLOUDY    39  30  70 SE14      29.91F
PINE RIDGE     CLOUDY    42  32  67 S16G24    29.86F
SPEARFISH      FAIR      55  34  44 NE10      29.79F
WINNER         CLOUDY    29  18  63 S21G29    30.07F WCI  16
$$

SDZ004>011-016>023-039-040-132100-
NORTHEAST SOUTH DAKOTA

CITY           SKY/WX    TMP DP  RH WIND       PRES   REMARKS
ABERDEEN       CLOUDY    14   2  58 SE24G30   30.22F WCI  -5
WATERTOWN      CLOUDY     8  -3  61 S18G25    30.26F WCI -11
BROOKINGS      CLOUDY     7  -2  66 SE20G26   30.30F WCI -13
SISSETON         N/A      6   0  76 S20       30.33F WCI -14
$$

SDZ017-020-022-023-036>040-048>070-132100-
SOUTHEAST SOUTH DAKOTA

CITY           SKY/WX    TMP DP  RH WIND       PRES   REMARKS
SIOUX FALLS    CLOUDY     8  -2  63 SE15      30.33F WCI  -9
HURON          CLOUDY    12   3  67 SE28G37   30.22F WCI  -9
CHAMBERLAIN    CLOUDY    24  12  60 SE20      30.12F WCI  10
MITCHELL       CLOUDY    13   5  70 SE22G31   30.27F WCI  -6
YANKTON        CLOUDY    12   3  67 SE17G24   30.32F WCI  -5
$$

ABBREVIATIONS USED IN REMARKS
   TC - TEMPERATURE IN CELSIUS
  WCI - WIND CHILL INDEX
   HX - HEAT INDEX
  VSB - VISIBILITY




USA.gov is the U.S. government's official web portal to all federal, state and local government web resources and services.